www.pogodaiklimat.ru

Погода и климат >> Архив погоды >> Киргизия >> Кара-Ссу


ПОГОДА в Кара-Ссу

  • Прогноз погоды в Кара-Ссу
  • Монитор погоды в Кара-Ссу

АРХИВ ПОГОДЫ в Кара-Ссу

Время (UTC), дата Ветер
(напр.,м/с)
 
Видим.   Явления Облачность Т
(С)
Тd
(С)
f
(%)
Тe
(С)
Тes
(С)
Комфортность P
(гПа)
Po
(гПа)
Тmin
(С)
Tmax
(С)
R
(мм)
R24
(мм)
S
(см)
12 12.06 В 2 20 км 3/3 600 м
[Cb calv]
+23.7 +7.8 36 +24 +27 комфорт 1012.8 918.4
15 12.06 Ю 1 20 км 3/3 600 м
[Sc]
+17.6 +12.4 72 +19 +19 1015.2 918.6 +24.5
18 12.06 Ю 3 н/о ясно +16.2 +8.6 61 +16 +16 1015.8 918.6 +24.5
21 12.06 Ю 3 н/о ясно +12.1 +8.0 76 +11 +11 1015.4 917.0
00 13.06 штиль 0 50 км 1/1 600 м
[Sc]
+10.7 +7.4 80 +10 +10 1015.1 916.3
03 13.06 В 1 50 км ясно +19.7 +9.8 53 +22 +31 комфорт 1011.6 916.0
06 13.06 Ю 2 50 км 1/1 600 м
[Cu med, cong]
+24.9 +5.9 29 +25 +42 комфорт 1009.1 915.2 +10.5
09 13.06 В 2 50 км 3/3 600 м
[Cu med, cong]
+26.9 +4.5 24 +26 +38 жарко 1007.4 914.2
12 13.06 В 1 50 км 3/3 600 м
[Cb calv]
+28.3 +8.2 28 +28 +32 жарко 1005.8 913.3
15 13.06 Ю 1 20 км 3/3 600 м
[Sc]
+19.4 +11.8 61 +22 +22 комфорт 1008.6 913.3 +28.9
18 13.06 Ю 3 н/о 1/1 600 м
[Sc]
+17.1 +10.1 63 +17 +17 1007.5 911.5 +28.9
21 13.06 Ю 1 н/о 1/1 600 м
[Sc]
+12.8 +9.5 80 +13 +13 1008.7 911.2
00 14.06 Ю 2 50 км 3/3 600 м
[Sc]
+13.1 +9.4 78 +12 +12 1008.9 911.5
03 14.06 В 1 50 км 3/1 600 м
[Cb calv Ci fib]
+23.5 +15.0 59 +26 +34 жарко 1005.6 911.9
06 14.06 С 1 20 км 3/1 600 м
[Cb calv Ci fib]
+27.3 +9.5 33 +28 +47 жарко 1003.7 911.1 +12.0
09 14.06 В 1 20 км 5/1 600 м
[Sc Ci fib]
+28.0 +9.8 32 +28 +45 жарко 1003.2 910.8
12 14.06 С 1 9000 м 3/1 600 м
[Cb calv Ci fib]
+30.1 +10.3 29 +30 +35 жарко 1001.8 910.2
15 14.06 Ю 1 20 км 5/5 600 м
[Cb calv]
+21.0 +13.0 60 +25 +25 комфорт 1005.8 911.3 +30.8
18 14.06 С 1 н/о 9/9 600 м
[Cb calv]
+22.0 +9.1 44 +23 +23 комфорт 1005.7 911.4 +30.8
21 14.06 С 1 н/о 9/9 600 м
[Cb calv]
+22.0 +9.1 44 1005.7 911.4
00 15.06 Ю 1 20 км 9/9 600 м
[Cb calv]
+17.8 +11.6 67 +19 +19 1007.9 912.1
03 15.06 В 1 20 км 8/6 600 м
[Cb calv Ci fib]
+24.1 +12.2 47 +26 +29 жарко 1005.8 912.2
06 15.06 С 2 20 км 6/5 600 м
[Cb calv Ci fib]
+28.4 +9.4 30 +28 +37 жарко 1004.1 911.8 +17.3
09 15.06 Ю 6 20 км 9/9 600 м
[Cb calv]
+28.1 +6.1 25 +27 +28 жарко 1004.5 912.0
12 15.06 С 7 20 км 9/9 600 м
[Cb calv]
+25.3 +9.7 37 +26 +26 жарко 1007.1 913.6
15 15.06 Ю 1 20 км 9/9 600 м
[Cb calv]
+21.6 +12.0 54 +24 +24 комфорт 1009.7 914.9 +28.6
18 15.06 Ю 4 н/о 9/9 600 м
[Cb calv]
+21.0 +9.2 47 +23 +23 комфорт 1010.1 915.1 +28.9
21 15.06 Ю 5 н/о 1/0
[Ci fib]
+18.0 +7.3 50 +18 +18 1010.2 914.3
00 16.06 Ю 4 20 км 3/1
[Cb calv Ci fib]
+18.6 +2.9 35 +19 +19 1009.6 913.7
03 16.06 В 2 50 км 3/3 600 м
[Sc]
+20.6 +11.6 56 +23 +28 комфорт 1009.0 914.0
06 16.06 С 1 50 км 3/3 600 м
[Cb calv]
+28.1 +7.3 27 +27 +43 жарко 1007.1 914.4 +16.5
09 16.06 С 3 50 км 3/3 600 м
[Cb calv]
+29.9 +3.7 19 +28 +38 жарко 1006.2 914.0
12 16.06 С 1 50 км 3/3 600 м
[Cu med, cong]
+30.3 +4.5 19 +28 +32 жарко 1004.8 912.8
15 16.06 Ю 2 50 км 3/3 600 м
[Cb calv]
+20.6 +12.9 61 +24 +24 комфорт 1008.0 913.1 +30.9
18 16.06 Ю 3 н/о 8/8 600 м
[Cb calv]
+22.2 +6.0 35 +23 +23 комфорт 1008.2 913.6 +30.9
21 16.06 Ю 2 н/о 3/3 600 м
[Sc]
+16.4 +8.8 61 +17 +17 1009.8 913.4
00 17.06 Ю 3 20 км 6/6 600 м
[Cb calv]
+18.6 +7.4 48 +19 +19 1008.5 912.8
03 17.06 штиль 0 20 км 4/4 600 м
[Cb calv]
+24.7 +13.7 50 +27 +33 жарко 1006.8 913.4
06 17.06 Ю 1 20 км 3/3 600 м
[Cb calv]
+27.9 +6.3 25 +27 +43 жарко 1006.0 913.4 +14.9
09 17.06 С 1 20 км 3/3 600 м
[Cu med, cong]
+29.9 +6.3 23 +29 +43 жарко 1004.1 912.2
12 17.06 штиль 0 20 км 3/3 600 м
[Cu med, cong]
+30.5 +8.3 25 +30 +34 жарко 1002.1 910.5
15 17.06 Ю 2 20 км 4/4 600 м
[Cb calv]
+22.8 +14.7 60 +26 +26 жарко 1004.5 910.7 +31.1
18 17.06 Ю 3 н/о 1/1 600 м
[Sc]
+19.0 +10.1 56 +20 +20 1007.0 911.6 +31.1
21 17.06 Ю 2 н/о 3/3 600 м
[Sc]
+15.1 +9.1 67 +15 +15 1007.7 911.1
00 18.06 СЗ 2 20 км 6/6 600 м
[Cb calv]
+17.2 +8.2 55 +18 +18 1007.1 911.1
03 18.06 Ю 1 20 км 6/6 600 м
[Cb calv]
+24.1 +9.0 38 +25 +28 комфорт 1006.1 912.4
06 18.06 С 1 20 км 4/3 600 м
[Cb calv Ci fib]
+26.7 +9.1 33 +27 +42 жарко 1004.9 912.0 +14.0
09 18.06 С 1 20 км 3/3 600 м
[Cb calv]
+29.8 +7.6 25 +29 +43 жарко 1003.0 911.2
12 18.06 С 2 20 км 4/4 600 м
[Cb calv]
+27.1 +8.9 32 +27 +30 жарко 1002.6 910.0
15 18.06 Ю 1 20 км 3/3 600 м
[Cb calv]
+22.2 +6.9 37 +23 +23 комфорт 1006.0 911.6 +30.5
18 18.06 Ю 2 н/о 8/3 600 м
[Cb calv Ci fib]
+20.6 +7.7 43 +22 +22 комфорт 1007.9 912.9 +30.5
21 18.06 Ю 2 н/о 3/3 600 м
[Cb calv]
+19.3 +7.4 46 +21 +21 комфорт 1007.5 912.1
00 19.06 Ю 2 20 км 4/4 600 м
[Cb calv]
+18.6 +8.1 50 +20 +20 1007.3 911.7
03 19.06 СВ 2 20 км 6/0
[Ci fib]
+23.5 +13.2 52 +26 +32 жарко 1006.0 912.2
06 19.06 Ю 2 20 км 4/1 600 м
[Cu hum Ci fib]
+28.4 +9.9 32 +29 +45 жарко 1003.5 911.3 +15.3

 

Местоположение метеостанции Кара-Ссу (город Ош, Киргизия): широта 40.70 долгота 72.90 высота над уровнем моря 868 м.

В архиве по умолчанию представлена погода в Кара-Ссу за последнюю неделю. Архивные данные за месяц целиком и за предыдущие месяцы, начиная с января 2011 года, Вы можете получить, выбрав интересующий диапазон дат из раскрывающегося списка и нажав кнопку "Ввод!".


*Определитесь, кто Вы:
робот инопланетянин человек

Внимание! Время в таблицах - всемирное. Для получения местного времени необходимо прибавить поправку, которая равна 5 ч.

Смотрите также архив погоды в соседних городах и на ближайших метеорологических станциях:

Погода в Джалал-Абаде (Джалал-Абадская область, Киргизия) (25 км)
Погода в Узгене (Ошская область, Киргизия) (35 км)
Погода в Андижан (Андижанская область, Узбекистан) (48 км)
Погода в Ноокате (Ошская область, Киргизия) (53 км)
Погода в Ак-Тереке (Иссык-Кульская область, Киргизия) (65 км)
Погода в Куве (Ферганская область, Узбекистан) (74 км)
Погода в Бозе (Андижанская область, Узбекистан) (83 км)
Погода в Фергане (Ферганская область, Узбекистан) (104 км)
Погода в Юбилейной (Андижанская область, Узбекистан) (111 км)
Погода в Намангане (Намаганская область, Узбекистан) (115 км)

Пояснения к столбцам:

Ветер - указаны скорость ветра в м/с - средняя за 10 мин, порывы в срок и между сроками (в фигурных скобках) и направление, откуда дует ветер: С - северный, СВ - северо-восточный, В - восточный, ЮВ - юго-восточный, Ю - южный, ЮЗ - юго-западный, З - западный, СЗ - северо-западный.
Видимость - горизонтальная дальность видимости в метрах или километрах. При видимости от 1 до 10 км при отсутствии осадков обычно наблюдается дымка, при ухудшении видимости до 1 км и менее - туман. В сухую погоду видимость может ухудшаться дымом, пылью или мглою.
Явления - указаны атмосферные явления, наблюдавшиеся в срок или в последний час перед сроком; фигурными скобками обозначены явления, наблюдавшиеся между сроками (за 1-3 часа до срока); квадратными скобками обозначены град или гололедные отложения с указанием их диаметра в мм.
Облачность - указаны через наклонную черту общая и нижняя облачность в баллах и высота нижней границы облаков в метрах; квадратными скобками обозначены формы облаков: Ci - перистые, Cs - перисто-слоистые, Cc - перисто-кучевые, Ac - высококучевые, As - высокослоистые, Sc - слоисто-кучевые, Ns - слоисто-дождевые, Cu - кучевые, Cb - кучево-дождевые. Подробнее классификацию облаков см. в Атласе облаков (PDF).
T - Температура воздуха - температура, измеренная на высоте 2 м над землей.
Td - Температура точки росы - температура, при понижении до которой содержащийся в воздухе водяной пар достигнет насыщения.
f - Относительная влажность воздуха - влажноcть воздуха, измеренная на высоте 2 м над землей.
Te - Эффективная температура - температура, которую ощущает одетый по сезону человек в тени. Характеристика душности погоды. При расчете учитывается влияние влажности воздуха и скорости ветра на теплоощущения человека.
Tes - Эффективная температура на солнце - температура, которую ощущает человек, с поправкой на солнечный нагрев. Характеристика знойности погоды. Зависит от высоты солнца над горизонтом, облачности и скорости ветра. Ночью, в пасмурную погоду, а также при ветре 12 м/с и более поправка равна нулю.
P - Атмосферное давление - приведенное к уровню моря атмосферное давление.
Po - Атмосферное давление - измеренное на уровне метеостанции атмосферное давление.
Tmin - Минимальная температура - минимум температуры воздуха на высоте 2 м над землей.
Tmax - Максимальная температура - максимум температуры воздуха на высоте 2 м над землей.
R - Количество осадков - Количество выпавших осадков за период времени, мм. При наведении курсора мыши на число - период времени, за который выпало указанное количество осадков.
R24 - Количество осадков - Количество выпавших осадков за 24 часа, мм.
S - Снежный покров - Высота снежного покрова, см. При наведении курсора мыши на число - состояние снежного покрова и степень покрытия местности в баллах.